Skip Page Navigation
NASA JPL Caltech
NASA Logo - Jet Propulsion Laboratory + View the NASA Portal
+ Near-Earth Object (NEO) Program
Search JPL
JPL Home Earth Solar System Stars & Galaxies Technology
JPL Solar System Dynamics
BODIES ORBITS EPHEMERIDES TOOLS PHYSICAL DATA DISCOVERY FAQ SITE MAP
JPL Small-Body Database Browser
Search: [ help ]  
10241 Milicevic (1999 AU6)
Classification: Main-belt Asteroid          SPK-ID: 2010241
Ephemeris | Orbit Diagram | Orbital Elements | Physical Parameters | Discovery Circumstances | Close-Approach Data ]

[ show orbit diagram ]
Orbital Elements at Epoch 2457000.5 (2014-Dec-09.0) TDB
Reference: JPL 13 (heliocentric ecliptic J2000)
 Element Value Uncertainty (1-sigma)   Units 
e .1558677974646803 5.6791e-08  
a 3.053433150658443 2.7762e-08 AU
q 2.577501250759672 1.6824e-07 AU
i 1.606336047062641 5.7014e-06 deg
node 151.7542153672606 0.00024056 deg
peri 189.0965090286045 0.00024195 deg
M 125.3458760493789 2.2761e-05 deg
tp 2456321.939460163382
(2013-Jan-29.43946016)
0.00012219 JED
period 1948.861837663886
5.34
2.6579e-05
7.277e-08
d
yr
n .1847232025598769 2.5193e-09 deg/d
Q 3.529365050557214 3.2089e-08 AU
  Orbit Determination Parameters
   # obs. used (total)      1015  
   data-arc span      12029 days (32.93 yr)  
   first obs. used      1981-10-25  
   last obs. used      2014-10-01  
   planetary ephem.      DE431  
   SB-pert. ephem.      SB431-BIG16  
   condition code      0  
   fit RMS      .56332  
   data source      ORB  
   producer      Otto Matic  
   solution date      2014-Oct-09 14:17:28  

Additional Information
 Earth MOID = 1.56954 AU 
 T_jup = 3.217 
[ show covariance matrix ]

Ephemeris | Orbit Diagram | Orbital Elements | Physical Parameters | Discovery Circumstances | Close-Approach Data ]

Physical Parameter Table
Parameter Symbol Value Units Sigma Reference Notes
absolute magnitude H 13.5 mag n/a PDS3 (MPC 33916)  

10241 Miličevi{c´}           Discovered 1999 Jan. 9 by K. Korlevic at Visnjan.
Don Nikola Miličevi{c´} (1887-1963) was last administrator of Blaca Hermitage on Brač, Croatia. In Blaca he observed double stars, searched for comets and novae and published an amateur astronomy newsletter.
NOTE: some special characters may not display properly (any characters within {} are an attempt to place the proper accent above a character)
Reference: 20051215/MPCPages.arcLast Updated: 2006-03-22

[ show close-approach data ]
Alternate Designations
 1999 AU6 = 1981 UX24 = 1996 KB1 = 1997 WB49 
Ephemeris | Orbit Diagram | Orbital Elements | Physical Parameters | Discovery Circumstances | Close-Approach Data ]
ABOUT SSD CREDITS/AWARDS PRIVACY/COPYRIGHT GLOSSARY LINKS
FirstGov 2014-Oct-21 15:08 UT
(server date/time)  
NASA Home Page
Site Manager:   Donald K. Yeomans
Webmaster  Alan B. Chamberlin